Location: Unspecified
(17.6330°N, 0.0000°E)
Time: 19:54:40
(UTC+00:00)

Envisat - Visible Passes

Search period start: 15 October 2019 00:00
Search period end: 25 October 2019 00:00
Orbit: 764 x 766 km, 98.1° (Epoch: 15 October)

Date Brightness Start Highest point End Pass type
(mag) Time Alt. Az. Time Alt. Az. Time Alt. Az.
15 Oct 4.2 18:49:07 10° S 18:53:55 44° W 18:58:45 10° NNW visible
16 Oct 2.9 18:12:12 10° SSE 18:17:13 67° ENE 18:22:15 10° N visible
17 Oct 5.5 19:15:35 10° SSW 19:19:27 22° W 19:23:18 10° NW visible
18 Oct 3.6 18:37:41 10° S 18:42:40 60° W 18:47:40 10° NNW visible
19 Oct 3.2 18:01:08 10° SSE 18:06:00 49° ENE 18:10:53 10° N visible
19 Oct 6.3 19:44:27 10° WSW 19:45:01 10° W 19:45:35 10° W visible
20 Oct 5.0 19:03:49 10° SSW 19:08:10 29° W 19:12:32 10° NW visible
21 Oct 3.1 18:26:21 10° S 18:31:25 81° WSW 18:36:30 10° NNW visible
22 Oct 3.5 17:50:10 10° SE 17:54:47 36° ENE 17:59:24 10° N visible
22 Oct 6.0 19:31:02 10° SW 19:33:43 14° W 19:36:24 10° WNW visible
23 Oct 4.4 18:52:11 10° SSW 18:56:54 39° W 19:01:37 10° NNW visible
24 Oct 2.9 18:15:08 10° SSE 18:20:10 75° ENE 18:25:15 10° N visible
